Location: Brompton
(51.4000°N, 0.5333°E)
Time: 09:32:54
(UTC+00:00)

Cosmos 2181 Rocket - Pass Details

Date: 11 May 2021
Orbit: 952 x 1015 km, 82.9° (Epoch: 12 June)

Event Time Altitude Azimuth Distance (km) Brightness Sun altitude
Exits shadow 23:29:24 28° 212° (SSW) 1,727 4.9 -20.3°
Maximum altitude 23:32:43 62° 284° (WNW) 1,074 4.2 -20.3°
Drops below altitude 10° 23:38:49 10° 5° (N) 2,692 7.5 -20.4°
Sets 23:41:22 0° 9° (N) 3,641 8.5 -20.4°
